Wind_Speed
43 44 45 46 46 48 49 49 49 49 47 48 48 49 51 52 53 53 54 53 52 51 50 50 50 50 49 49 49 49 49 48 48 48 49 49 48 48
44 45 46 46 47 48 49 49 50 51 51 49 49 50 51 52 52 52 52 50 50 49 49 48 48 48 48 46 46 46 46 46 46 45 45 45 45 44
44 45 46 46 46 48 49 50 50 51 51 49 49 50 51 50 49 49 49 49 48 48 47 46 45 45 44 44 42 42 41 42 42 42 42 41 41 41
44 45 45 46 47 48 49 49 50 50 51 50 49 49 49 48 47 47 47 47 46 45 45 44 43 42 40 40 39 38 37 37 37 37 38 37 38 38
44 45 45 46 47 48 48 49 49 50 50 51 49 48 48 47 46 45 45 44 43 43 42 40 39 38 37 35 35 34 33 33 33 32 33 33 34 34
44 45 46 47 46 46 47 48 49 49 49 49 48 47 46 45 44 43 42 41 41 40 39 38 37 35 33 32 31 31 31 30 28 28 28 28 29 29
44 46 46 45 45 46 46 47 48 48 47 47 46 45 44 43 43 42 40 39 37 36 36 36 34 32 30 30 29 28 27 27 25 24 25 25 25 26
45 45 44 44 44 45 46 47 47 46 46 46 45 44 43 42 41 40 39 37 35 34 34 31 30 29 28 27 26 26 25 24 23 23 23 23 22 22
44 43 42 43 44 44 45 44 44 44 44 44 43 42 42 41 40 38 37 36 34 33 31 28 28 28 26 25 25 24 24 23 22 21 21 21 21 22
42 42 42 43 43 43 42 42 42 42 41 41 40 40 40 40 39 37 36 33 33 31 30 28 27 27 26 25 25 24 23 22 21 21 21 21 20 20
42 42 43 43 42 42 42 41 41 39 39 39 39 39 38 38 37 35 33 32 30 29 28 27 26 25 24 23 22 22 21 21 20 20 20 19 19 18
41 42 42 41 41 41 41 40 39 37 37 37 36 37 37 36 35 34 32 30 28 26 26 25 24 23 21 20 21 20 19 18 18 18 18 18 18 17
39 39 39 39 39 39 39 38 37 36 35 35 36 36 35 34 33 31 29 27 25 24 23 23 22 20 18 17 18 18 16 16 16 16 16 15 16 17
38 38 37 37 37 37 36 36 35 34 33 34 34 34 32 31 29 28 26 24 23 22 21 21 19 17 16 15 15 15 14 13 13 12 13 14 15 15
36 36 35 35 35 34 34 34 33 32 33 32 31 30 29 27 25 24 23 22 20 20 19 18 17 17 16 15 14 13 12 12 11 11 11 11 11 11
34 33 32 33 33 33 32 32 31 31 31 30 28 27 26 24 23 22 21 20 19 18 18 17 17 15 13 12 12 11 11 11 11 10 10 10 9 10
32 31 31 32 32 31 31 30 29 29 28 27 26 25 24 23 21 21 19 18 18 17 16 16 15 14 12 11 10 10 11 10 10 9 9 9 8 9
30 30 31 31 31 29 28 27 28 27 26 25 25 23 22 20 20 19 19 18 17 16 15 15 14 12 11 11 11 11 11 10 9 8 9 8 7 7
29 29 30 30 28 27 26 25 25 25 24 24 23 21 21 20 19 18 18 17 15 14 13 13 11 10 10 11 11 11 10 8 7 6 6 6 5 5
28 28 28 27 25 24 24 24 24 24 24 23 22 20 19 18 17 17 17 15 14 13 12 11 10 10 10 9 9 9 7 6 6 5 5 5 4 4
27 26 25 23 22 22 22 23 23 23 22 22 20 18 17 16 16 16 15 14 13 12 12 11 10 10 9 7 6 6 5 5 4 3 3 2 2 2
26 24 23 22 22 22 22 22 22 22 21 20 18 17 16 15 15 15 15 13 12 12 11 10 9 8 7 6 5 4 3 2 2 2 1 1 2 2
24 23 22 21 21 21 21 21 21 21 20 18 17 16 15 14 14 14 13 12 12 11 10 9 8 8 7 5 4 3 1 1 3 4 4 5 5 5
Wind_Direction
290 292 293 294 296 297 298 298 298 298 297 298 297 297 298 298 298 297 297 296 295 293 291 290 289 288 288 286 283 281 279 278 275 274 271 268 265 263
291 292 294 295 296 297 298 298 299 299 299 299 299 299 299 299 299 299 299 298 297 295 293 292 291 290 290 289 286 284 280 277 275 274 272 267 264 263
292 293 294 295 296 297 297 298 299 300 300 301 301 301 301 301 301 300 300 299 297 295 294 294 293 293 291 289 288 286 282 278 275 274 271 267 264 262
293 294 295 296 297 298 298 298 299 300 301 301 301 302 302 302 302 300 299 299 297 296 296 296 295 295 293 291 290 287 285 282 278 274 271 267 265 263
294 295 296 297 298 299 298 299 299 300 301 302 302 303 303 303 302 301 300 299 298 297 297 297 296 295 294 292 291 288 287 285 281 275 272 268 264 263
296 297 298 299 299 299 299 299 300 301 302 303 303 304 304 304 303 301 300 299 298 297 297 296 296 294 293 292 292 290 288 286 281 277 274 269 265 262
298 300 300 300 300 300 300 301 301 301 302 303 304 305 306 305 304 303 301 300 299 299 298 296 296 294 292 292 291 289 287 285 281 278 275 270 266 262
299 300 300 300 300 301 301 301 302 302 303 304 305 306 307 307 306 304 302 301 298 296 296 295 294 293 292 291 291 289 287 286 283 280 276 270 267 264
299 300 300 301 301 302 302 302 302 302 303 304 306 307 308 308 307 305 303 302 299 298 297 295 294 293 291 289 290 289 288 286 281 278 276 271 268 267
298 299 300 302 302 302 302 302 302 303 303 304 306 307 308 308 308 307 306 303 301 299 297 296 295 293 292 289 288 287 287 285 281 278 275 271 270 268
299 299 301 302 302 301 302 302 302 302 303 304 307 308 309 309 308 308 307 305 301 299 296 295 294 292 292 291 288 288 285 283 281 278 276 273 271 270
299 300 301 301 301 301 302 302 302 302 304 305 307 309 310 310 309 309 308 305 302 299 296 295 294 292 293 292 290 287 283 282 280 277 277 275 273 273
299 300 301 301 301 301 302 303 303 303 304 306 308 309 309 310 309 308 307 306 304 303 299 296 295 294 295 296 296 291 285 284 283 281 278 276 274 273
299 300 301 302 303 303 303 304 304 304 306 308 309 310 310 309 308 308 307 306 306 306 305 302 299 295 295 299 302 299 292 288 287 284 281 277 276 271
299 300 302 303 304 304 304 305 305 306 308 309 310 310 311 311 311 310 309 307 306 308 308 307 304 299 295 295 300 298 294 290 289 288 284 284 279 268
300 301 303 304 305 305 305 306 307 308 309 310 311 311 311 313 313 312 311 308 307 306 307 308 308 304 299 293 295 297 299 295 293 291 283 280 277 271
301 302 304 305 305 306 307 307 308 310 311 311 312 312 312 312 312 311 311 308 306 305 303 305 306 304 301 298 295 297 298 295 292 286 284 281 277 271
301 302 304 305 306 306 306 306 308 310 311 312 313 312 312 311 310 310 309 305 304 305 306 308 307 304 300 296 295 298 297 291 285 283 288 285 281 276
302 303 304 306 306 306 307 309 310 311 312 313 314 312 312 311 309 309 307 304 304 305 308 311 311 308 306 301 298 298 295 289 285 282 285 284 285 277
302 303 305 305 305 307 308 310 311 311 312 313 313 312 311 311 310 311 311 309 307 309 311 313 312 310 307 302 299 298 296 295 298 291 281 280 284 273
303 304 303 303 305 307 308 309 310 311 312 314 313 313 312 312 313 314 315 313 309 309 311 311 311 311 310 309 308 309 306 308 311 300 279 267 252 250
302 302 302 303 305 307 308 310 311 312 313 314 312 312 312 312 313 315 315 315 312 310 309 308 307 306 305 304 302 305 309 323 8 51 106 129 151 151
301 300 301 303 306 307 309 310 312 313 314 313 311 311 311 312 313 314 314 315 314 310 308 306 306 304 294 287 291 300 307 80 86 101 101 103 105 108
Height
5675 5672 5668 5665 5661 5658 5653 5649 5645 5642 5642 5637 5631 5625 5619 5612 5606 5601 5595 5590 5584 5580 5575 5571 5567 5564 5560 5557 5555 5553 5551 5549 5548 5548 5548 5550 5552 5555
5664 5661 5657 5654 5650 5647 5642 5637 5632 5628 5626 5624 5618 5612 5606 5599 5593 5587 5581 5575 5570 5566 5561 5557 5554 5550 5547 5544 5541 5538 5536 5535 5534 5533 5534 5535 5537 5540
5652 5649 5646 5643 5639 5635 5631 5626 5621 5615 5611 5610 5606 5600 5593 5587 5582 5575 5569 5563 5558 5553 5549 5544 5541 5537 5534 5531 5528 5525 5523 5521 5520 5520 5521 5522 5524 5527
5642 5639 5636 5632 5628 5624 5620 5615 5610 5604 5599 5595 5593 5588 5581 5575 5569 5564 5558 5552 5547 5542 5537 5533 5529 5526 5523 5520 5517 5514 5512 5510 5509 5508 5509 5511 5513 5515
5632 5629 5625 5621 5617 5613 5608 5604 5599 5594 5588 5582 5579 5575 5569 5563 5558 5553 5547 5542 5536 5532 5527 5523 5519 5516 5513 5510 5507 5505 5502 5501 5499 5499 5499 5500 5502 5504
5622 5618 5614 5609 5605 5601 5597 5593 5588 5583 5578 5572 5567 5563 5558 5552 5546 5541 5537 5532 5527 5522 5518 5514 5510 5507 5504 5502 5499 5497 5495 5493 5491 5491 5491 5492 5493 5495
5612 5607 5603 5599 5594 5590 5586 5581 5576 5572 5566 5561 5556 5551 5546 5541 5536 5531 5526 5522 5518 5513 5509 5506 5502 5499 5496 5494 5491 5489 5487 5486 5485 5484 5484 5485 5487 5488
5602 5597 5593 5589 5584 5579 5575 5570 5565 5560 5555 5550 5546 5540 5535 5530 5525 5520 5516 5512 5509 5506 5501 5498 5494 5492 5489 5487 5485 5482 5481 5480 5479 5479 5479 5480 5481 5482
5592 5588 5584 5579 5574 5570 5565 5560 5555 5549 5545 5540 5535 5530 5525 5521 5516 5512 5507 5503 5499 5495 5492 5490 5487 5485 5482 5480 5478 5477 5475 5474 5473 5473 5474 5474 5475 5477
5582 5578 5574 5569 5564 5560 5556 5551 5546 5541 5537 5532 5527 5522 5516 5511 5506 5502 5498 5495 5491 5488 5484 5483 5480 5478 5476 5474 5472 5471 5470 5469 5468 5468 5468 5469 5470 5471
5573 5568 5564 5559 5555 5550 5546 5542 5538 5533 5528 5523 5519 5513 5508 5503 5498 5494 5490 5487 5484 5481 5478 5475 5474 5472 5470 5468 5466 5465 5464 5463 5463 5463 5463 5464 5465 5466
5563 5558 5554 5549 5545 5540 5536 5533 5529 5525 5521 5516 5512 5506 5501 5496 5491 5487 5483 5480 5477 5475 5472 5469 5467 5465 5465 5464 5462 5460 5459 5458 5458 5458 5458 5459 5459 5461
5553 5549 5545 5540 5536 5531 5527 5524 5520 5516 5512 5508 5504 5499 5494 5490 5485 5481 5477 5473 5471 5468 5466 5464 5462 5460 5459 5458 5457 5455 5454 5453 5453 5453 5453 5454 5455 5456
5544 5540 5536 5531 5527 5523 5519 5516 5512 5508 5505 5501 5497 5492 5488 5484 5479 5475 5472 5468 5466 5463 5461 5459 5457 5456 5455 5454 5453 5451 5450 5450 5449 5449 5449 5450 5450 5451
5535 5531 5527 5523 5520 5516 5512 5508 5505 5501 5498 5494 5490 5486 5482 5478 5474 5471 5467 5464 5462 5459 5457 5454 5453 5452 5450 5449 5448 5448 5447 5446 5446 5446 5446 5446 5446 5447
5527 5524 5520 5516 5512 5509 5505 5501 5498 5494 5491 5487 5483 5480 5476 5473 5470 5466 5463 5461 5458 5456 5453 5451 5449 5448 5447 5446 5445 5444 5444 5443 5443 5443 5443 5443 5443 5443
5520 5517 5513 5510 5506 5502 5498 5495 5492 5488 5485 5481 5478 5475 5472 5469 5466 5462 5460 5457 5455 5453 5451 5448 5446 5445 5443 5443 5442 5442 5441 5440 5440 5440 5440 5440 5440 5440
5512 5510 5506 5503 5499 5496 5492 5489 5486 5483 5480 5476 5473 5470 5467 5464 5462 5459 5456 5454 5452 5449 5447 5445 5443 5442 5441 5440 5439 5439 5438 5438 5437 5437 5437 5438 5438 5437
5505 5502 5499 5496 5492 5489 5487 5484 5481 5478 5474 5471 5469 5466 5463 5460 5458 5455 5452 5450 5448 5447 5445 5443 5441 5440 5439 5438 5437 5436 5435 5435 5435 5435 5435 5435 5435 5435
5498 5495 5492 5489 5486 5484 5481 5479 5476 5473 5470 5467 5464 5462 5459 5457 5454 5452 5449 5447 5445 5444 5442 5440 5439 5438 5437 5436 5435 5434 5433 5433 5433 5433 5433 5433 5433 5433
5492 5489 5486 5484 5481 5479 5476 5474 5471 5468 5465 5463 5460 5458 5455 5453 5451 5449 5447 5445 5443 5442 5440 5439 5437 5436 5435 5434 5433 5432 5432 5431 5432 5432 5432 5432 5432 5433
5486 5483 5481 5479 5476 5474 5471 5469 5466 5464 5461 5458 5456 5454 5452 5450 5448 5446 5444 5442 5441 5439 5438 5437 5435 5434 5434 5433 5432 5432 5432 5431 5431 5431 5431 5432 5433 5433
5480 5478 5476 5473 5471 5469 5466 5464 5462 5459 5457 5455 5453 5450 5449 5447 5445 5444 5442 5440 5438 5437 5436 5435 5434 5432 5432 5432 5432 5431 5431 5431 5431 5431 5432 5432 5433 5433